GW3344 Weather Reports


time (UTC)temp
F
wind
direction
speed
knots
gust
knots
rain 1hr
in
rain 24hr
in
rain mn
in
humidity
%
barometer
mb
20260504042009 55 253 4.3 12.2 0.00 0.01 0.00 51 1010.8
20260504041009 55 232 6.1 12.2 0.00 0.01 0.00 50 1010.9
20260504040030 55 241 9.6 13.9 0.00 0.01 0.00 51 1010.8
20260504035023 55 255 7.0 10.4 0.00 0.01 0.01 52 1010.8
20260504034025 54 234 4.3 7.8 0.00 0.01 0.01 52 1010.7
20260504033122 54 245 5.2 11.3 0.00 0.01 0.01 52 1010.5
20260504031122 54 247 5.2 12.2 0.00 0.01 0.01 54 1010.7
20260504025124 54 247 3.5 5.2 0.00 0.01 0.01 54 1010.8
20260504024124 53 264 6.1 9.6 0.00 0.01 0.01 55 1010.8
20260504023224 53 235 3.5 4.3 0.00 0.01 0.01 58 1011.0
20260504022222 53 267 3.5 6.1 0.00 0.01 0.01 57 1010.9
20260504021221 53 227 7.0 13.9 0.00 0.01 0.01 57 1010.9
20260504020224 53 259 2.6 6.1 0.00 0.01 0.01 59 1011.0
20260504015241 53 247 5.2 9.6 0.00 0.01 0.01 61 1011.0
20260504014339 52 250 0.9 3.5 0.00 0.01 0.01 63 1011.0
20260504013324 51 237 1.7 3.5 0.00 0.01 0.01 67 1011.0
20260504012324 50 241 3.5 7.8 0.00 0.01 0.01 74 1011.0
20260504010339 49 247 0.9 2.6 0.00 0.01 0.01 84 1011.0
20260504005323 50 157 0.0 0.0 0.00 0.01 0.01 87 1011.1
20260504003323 49 180 0.0 0.0 0.00 0.01 0.01 88 1011.3
20260504003223 49 180 0.0 0.0 0.00 0.01 0.01 87 1011.4
20260504002223 49 180 0.0 0.0 0.01 0.01 0.01 87 1011.5
20260504002123 49 180 0.0 0.0 0.01 0.01 0.01 86 1011.5
20260504001123 49 180 0.0 0.0 0.01 0.01 0.01 86 1011.4
20260503235124 50 247 0.9 2.6 0.01 0.01 0.01 85 1012.0
20260503234123 50 247 0.9 1.7 0.01 0.01 0.01 84 1012.0
20260503233122 50 270 1.7 1.7 0.01 0.01 0.00 83 1011.8
20260503232124 50 269 4.3 6.1 0.00 0.00 0.00 81 1011.8
20260503230123 51 264 4.3 7.0 0.00 0.00 0.00 75 1012.0
20260503224223 53 262 5.2 7.8 0.00 0.00 0.00 62 1011.8
20260503222322 53 265 3.5 5.2 0.00 0.00 0.00 59 1011.6
20260503221323 53 263 6.1 8.7 0.00 0.00 0.00 56 1011.5
20260503220323 53 271 2.6 5.2 0.00 0.00 0.00 56 1011.5
20260503215324 53 246 3.5 6.1 0.00 0.00 0.00 55 1011.4
20260503214324 53 265 7.0 8.7 0.00 0.00 0.00 54 1011.4
20260503213422 54 254 7.0 8.7 0.00 0.00 0.00 54 1011.2
20260503212423 54 261 4.3 7.8 0.00 0.00 0.00 54 1011.2
20260503211522 54 233 3.5 7.0 0.00 0.00 0.00 54 1011.2
20260503210523 54 270 2.6 4.3 0.00 0.00 0.00 52 1011.3
20260503205522 54 231 7.0 11.3 0.00 0.00 0.00 52 1011.4
20260503204621 54 245 7.0 11.3 0.00 0.00 0.00 50 1011.5
20260503203624 55 267 5.2 8.7 0.00 0.00 0.00 49 1011.5
20260503202623 55 258 5.2 8.7 0.00 0.00 0.00 49 1011.5
20260503201623 55 243 3.5 6.1 0.00 0.00 0.00 48 1011.6
20260503201539 55 257 7.0 10.4 0.00 0.00 0.00 49 1011.4
20260503200623 56 254 8.7 13.0 0.00 0.00 0.00 46 1011.7
20260503195621 56 267 7.0 12.2 0.00 0.00 0.00 46 1012.2
20260503194623 56 251 5.2 12.2 0.00 0.00 0.00 46 1012.1
20260503191722 56 259 4.3 8.7 0.00 0.00 0.00 43 1012.8
20260503190724 56 233 2.6 10.4 0.00 0.00 0.00 44 1013.0
20260503185723 56 234 6.1 12.2 0.00 0.00 0.00 44 1013.1
20260503184739 56 251 6.1 19.1 0.00 0.00 0.00 45 1013.3
20260503183822 55 244 5.2 10.4 0.00 0.00 0.00 44 1013.5
20260503181922 54 238 7.0 11.3 0.00 0.00 0.00 42 1013.6
20260503175923 54 253 7.8 12.2 0.00 0.00 0.00 40 1014.1
20260503173940 55 234 3.5 7.0 0.00 0.00 0.00 44 1014.2
20260503172922 54 235 10.4 16.5 0.00 0.00 0.00 42 1014.4
20260503170921 54 220 3.5 7.0 0.00 0.00 0.00 46 1014.5
20260503150121 50 226 5.2 8.7 0.00 0.00 0.00 62 1015.6
20260503140312 48 274 4.3 6.1 0.00 0.00 0.00 65 1016.1
20260503130312 46 265 2.6 6.1 0.00 0.00 0.00 67 1016.4
20260503110612 36 180 0.0 0.0 0.00 0.00 0.00 86 1016.0
20260503080812 35 247 0.0 1.7 0.00 0.00 0.00 84 1015.8
20260503072813 36 225 0.9 2.6 0.00 0.00 0.00 84 1015.7
20260503071813 36 245 1.7 3.5 0.00 0.00 0.00 87 1015.7
20260503070911 35 226 0.0 0.0 0.00 0.00 0.00 88 1015.7
20260503060213 36 270 0.0 0.0 0.00 0.00 0.00 86 1016.0
20260503054211 36 225 0.0 0.0 0.00 0.00 0.00 85 1016.1
20260503053213 36 225 0.0 0.0 0.00 0.00 0.00 84 1016.2
20260503052211 36 225 0.0 0.0 0.00 0.00 0.00 83 1016.4
20260503051310 37 225 0.0 0.0 0.00 0.00 0.00 83 1016.4
20260503050311 38 225 0.0 0.0 0.00 0.00 0.00 80 1016.7
20260503045311 38 225 0.0 0.0 0.00 0.00 0.00 77 1016.6
20260503044410 39 247 0.0 0.0 0.00 0.00 0.00 76 1016.7
20260503043412 39 270 1.7 2.6 0.00 0.00 0.00 75 1016.8
20260503042510 40 247 0.0 0.9 0.00 0.00 0.00 75 1017.0